Погода в Даугавпилсе

Латвия     55°52′19″N   26°31′24″E
темп.,
°C
ветер,
м/с
пор.,
м/с
влажн.,
%
обл.,
%
осадки,
мм/ч
давл.,
гПа
погр.,
м
5 марта, пт
пт523:00−2сз26680 0.0 1011257
02:00−3зсз37660 0.0 1011417
05:00−2зсз597541 0.0 10121105
08:00−3сз597258 0.1 1013994
11:00−1ссз593785 0.1 10141673
14:000сз593042 0.1 10162215
17:00−1зсз363675 0.0 10161343
20:00−3з348682 0.3 1018297
6 марта, сб
сб623:00−4всв119491 1.1 101976
02:00−4ссв358796 2.5 1021422
05:00−6ссз367679 0.1 1021253
08:00−6зсз377239 0.1 1023371
11:00−2зсз46592 0.0 10231116
14:000з59491 0.0 10211442
17:00−1зюз5125785 0.0 10181355
20:00−1зюз7146493 0.0 10161118
7 марта, вс
вс723:00−1зюз81760100 0.0 10111268
02:00−1зюз81690100 0.1 10061178
05:00−1сз81393100 4.0 10041048
08:00−3сз41061100 4.7 10061434
11:00−2з6115463 0.0 10061888
14:00−1з7125381 0.3 10052099
17:00−2з7146195 0.3 10031734
20:00−4зсз8158498 0.4 10031460
8 марта, пн
пн823:00−5зсз71479100 0.1 10051346
02:00−5сз51176100 0.1 10081058
05:00−6сз378499 0.1 1009673
08:00−7ссз368256 0.1 1010691
11:00−4ссз355813 0.0 10121256
14:00−4ссз467056 0.1 1013930
17:00−5с5762100 0.2 10151203
20:00−7с5867100 0.3 10181058
9 марта, вт
вт923:00−8с487398 0.0 1021914
02:00−10с387762 0.0 1023540
05:00−10ссз26840 0.0 1024285
08:00−10ссз36790 0.0 1026288
11:00−5ссз24570 0.0 1027641
14:00−3сз23470 0.0 10271000
17:00−3з35580 0.0 1026616
20:00−6з25760 0.0 1028131